Sexton Summit, OR

1:24 AM PST on December 07, 2019 (GMT -0800)
Sexton Summit

Weather History for KSXT - August, 2019

Change the Weather History Date:

Thursday, August 22, 2019

  Actual Average Record
Temperature  
Mean Temperature 58 °F -  
Max Temperature 64 °F 72 °F 86 °F (1999)
Min Temperature 52 °F 52 °F 42 °F (2010)
Degree Days  
Heating Degree Days 7    
Growing Degree Days 8 (Base 50)    
Moisture  
Dew Point 56 °F    
Average Humidity 92    
Maximum Humidity 100    
Minimum Humidity 78    
Precipitation  
Precipitation 0.02 in - - ()
Sea Level Pressure  
Sea Level Pressure 30.02 in    
Wind  
Wind Speed 3 mph (North)    
Max Wind Speed 13 mph    
Max Gust Speed 22 mph    
Visibility 5 miles    
Events Fog , Rain    
Averages and records for this station are not official NWS values.
T = Trace of Precipitation, MM = Missing Value Source: NWS Daily Summary

Daily Weather History Graph

Daily Weather History Graph

Search for Another Location

Airport or City:

Astronomy

Aug. 22, 2019 Rise Set
Actual Time 6:27 AM PDT 8:04 PM PDT
Civil Twilight 5:57 AM PDT 8:34 PM PDT
Nautical Twilight 5:21 AM PDT 9:10 PM PDT
Astronomical Twilight 4:42 AM PDT 9:48 PM PDT
Moon 11:48 PM PDT (8/22) 1:17 PM PDT (8/22)
Length of Visible Light 14h 36m
Length of Day
13h 36m
Waning Gibbous, 58% of the Moon is Illuminated
Aug 22
Waning Gibbous
Aug 23
Last Quarter
Aug 30
New
Sep 5
First Quarter
Sep 13
Full

Hourly Weather History & Observations

Time (PDT) Temp. Dew Point Humidity Pressure Visibility Wind Dir Wind Speed Gust Speed Precip Events Conditions
12:56 AM 55.9 °F 55.0 °F 97% 30.02 in 0.2 mi Calm Calm - N/A Fog Fog
1:56 AM 55.0 °F 55.0 °F 100% 30.00 in 0.2 mi Calm Calm - N/A Fog Fog
2:30 AM 55.0 °F 55.0 °F 100% 30.07 in 0.5 mi Variable 5.8 mph - N/A Fog Fog
5:04 AM 55.0 °F 54.0 °F 96% 30.07 in 0.2 mi Calm Calm - N/A Fog Fog
5:56 AM 55.0 °F 54.0 °F 96% 30.00 in 0.2 mi Calm Calm - 0.00 in Fog Fog
6:56 AM 54.0 °F 54.0 °F 100% 30.01 in 0.2 mi North 6.9 mph - 0.00 in Fog , Rain Light Rain
7:56 AM 55.0 °F 55.0 °F 100% 30.01 in 0.2 mi Calm Calm - 0.02 in Fog Fog
8:56 AM 55.9 °F 55.0 °F 97% 30.01 in 0.2 mi Variable 4.6 mph - 0.00 in Fog , Rain Light Rain
9:56 AM 57.0 °F 57.0 °F 100% 30.00 in 0.2 mi Calm Calm - 0.00 in Fog Fog
10:03 AM 57.2 °F 55.4 °F 94% 30.08 in 1.0 mi ENE 5.8 mph - N/A   Mist
10:13 AM 57.0 °F 55.0 °F 93% 30.09 in 9.0 mi Variable 4.6 mph - N/A   Mostly Cloudy
10:58 AM 59.0 °F 57.2 °F 94% 30.09 in 3.0 mi Calm Calm - N/A   Overcast
11:10 AM 60.1 °F 59.0 °F 96% 30.09 in 1.5 mi Calm Calm - N/A   Overcast
11:42 AM 61.0 °F 57.9 °F 90% 30.09 in 1.2 mi North 4.6 mph - N/A   Overcast
11:52 AM 60.8 °F 57.2 °F 88% 30.09 in 0.8 mi North 5.8 mph - N/A   Mist
11:58 AM 60.8 °F 57.2 °F 88% 30.09 in 2.5 mi Variable 3.5 mph - N/A   Overcast
12:17 PM 61.0 °F 57.9 °F 90% 30.10 in 1.2 mi Variable 3.5 mph - N/A   Overcast
12:26 PM 61.0 °F 57.9 °F 90% 30.09 in 3.0 mi Variable 4.6 mph - N/A   Overcast
12:39 PM 61.0 °F 57.9 °F 90% 30.09 in 2.0 mi Variable 5.8 mph - N/A   Overcast
12:48 PM 61.0 °F 57.9 °F 90% 30.09 in 6.0 mi Calm Calm - N/A   Overcast
12:56 PM 62.1 °F 57.9 °F 86% 29.99 in 5.0 mi Variable 5.8 mph - N/A   Overcast
1:10 PM 61.0 °F 57.0 °F 87% 30.09 in 10.0 mi Variable 3.5 mph - N/A   Overcast
1:56 PM 64.0 °F 57.9 °F 80% 29.98 in 10.0 mi Variable 4.6 mph - N/A   Mostly Cloudy
2:56 PM 64.0 °F 57.9 °F 80% 29.96 in 10.0 mi Variable 3.5 mph - N/A   Clear
3:56 PM 64.0 °F 57.0 °F 78% 29.94 in 10.0 mi Variable 4.6 mph - N/A   Clear
4:56 PM 63.0 °F 57.0 °F 81% 29.93 in 10.0 mi Variable 6.9 mph - N/A   Clear
5:56 PM 62.1 °F 57.0 °F 84% 29.93 in 10.0 mi North 9.2 mph - N/A   Clear
6:56 PM 57.9 °F 55.0 °F 90% 29.94 in 10.0 mi NNW 10.4 mph 20.7 mph N/A   Clear
7:56 PM 55.9 °F 54.0 °F 93% 29.94 in 10.0 mi NNW 9.2 mph 17.3 mph N/A   Clear
8:56 PM 54.0 °F 53.1 °F 97% 29.95 in 10.0 mi North 12.7 mph 21.9 mph N/A   Clear
9:56 PM 53.1 °F 52.0 °F 96% 29.96 in 10.0 mi North 11.5 mph - N/A   Clear
10:56 PM 52.0 °F 50.0 °F 93% 29.94 in 10.0 mi North 12.7 mph - N/A   Clear
11:56 PM 53.1 °F 50.0 °F 89% 29.93 in 10.0 mi North 8.1 mph - N/A   Clear